• In Deutschland
  • Länderverzeichnis
  • Für 7 Tage
  • Wassertemperatur
  • Satellitenkarten
  • Wetterkarte
  • Widgets
  • user-avatar
    Anmelden

    Stündliche Wetter Laszkar Gah

    Heute, 20 Januar, Samstag

    Zeit Temperatur Niederschläge Wind Luftdruck Luftfeuchtigkeit
    00:00 +12°C° 0 mm 4 m/S 696 mmHg 15%
    01:00 +11°C° 0 mm 4 m/S 696 mmHg 16%
    02:00 +11°C° 0 mm 4 m/S 696 mmHg 16%
    03:00 +10°C° 0 mm 4 m/S 696 mmHg 17%
    04:00 +10°C° 0 mm 4 m/S 696 mmHg 17%
    05:00 +10°C° 0 mm 4 m/S 695 mmHg 17%
    06:00 +10°C° 0 mm 4 m/S 695 mmHg 17%
    07:00 +8°C° 0 mm 4 m/S 695 mmHg 18%
    08:00 +12°C° 0 mm 4 m/S 696 mmHg 15%
    09:00 +14°C° 0 mm 4 m/S 696 mmHg 13%
    10:00 +17°C° 0 mm 4 m/S 696 mmHg 11%
    11:00 +18°C° 0 mm 4 m/S 696 mmHg 10%
    12:00 +19°C° 0 mm 4 m/S 696 mmHg 10%
    13:00 +21°C° 0 mm 3 m/S 695 mmHg 9%
    14:00 +21°C° 0 mm 3 m/S 695 mmHg 10%
    15:00 +21°C° 0 mm 2 m/S 694 mmHg 10%
    16:00 +21°C° 0 mm 2 m/S 694 mmHg 10%
    17:00 +19°C° 0 mm 2 m/S 694 mmHg 11%
    18:00 +18°C° 0 mm 3 m/S 694 mmHg 12%
    19:00 +16°C° 0 mm 3 m/S 694 mmHg 13%
    20:00 +16°C° 0 mm 3 m/S 694 mmHg 14%
    21:00 +14°C° 0 mm 4 m/S 694 mmHg 14%
    22:00 +14°C° 0 mm 4 m/S 693 mmHg 15%
    23:00 +13°C° 0 mm 4 m/S 693 mmHg 16%

    Morgen, 21 Januar, Sonntag

    Zeit Temperatur Niederschläge Wind Luftdruck Luftfeuchtigkeit
    00:00 +13°C° 0 mm 4 m/S 693 mmHg 17%
    01:00 +12°C° 0 mm 4 m/S 693 mmHg 17%
    02:00 +12°C° 0 mm 4 m/S 692 mmHg 18%
    03:00 +12°C° 0 mm 4 m/S 692 mmHg 18%
    04:00 +11°C° 0 mm 4 m/S 692 mmHg 18%
    05:00 +11°C° 0 mm 4 m/S 692 mmHg 18%
    06:00 +10°C° 0 mm 5 m/S 692 mmHg 18%
    07:00 +10°C° 0 mm 5 m/S 692 mmHg 18%
    08:00 +13°C° 0 mm 5 m/S 693 mmHg 17%
    09:00 +15°C° 0 mm 6 m/S 693 mmHg 17%
    10:00 +19°C° 0 mm 6 m/S 693 mmHg 16%
    11:00 +20°C° 0 mm 6 m/S 693 mmHg 16%
    12:00 +21°C° 0 mm 6 m/S 692 mmHg 17%
    13:00 +22°C° 0 mm 6 m/S 692 mmHg 17%
    14:00 +22°C° 0 mm 6 m/S 691 mmHg 17%
    15:00 +22°C° 0 mm 5 m/S 691 mmHg 18%
    16:00 +22°C° 0 mm 4 m/S 690 mmHg 18%
    17:00 +21°C° 0 mm 4 m/S 690 mmHg 20%
    18:00 +19°C° 0 mm 3 m/S 690 mmHg 22%
    19:00 +18°C° 0 mm 2 m/S 690 mmHg 24%
    20:00 +17°C° 0 mm 3 m/S 690 mmHg 28%
    21:00 +17°C° 0 mm 4 m/S 690 mmHg 31%
    22:00 +15°C° 0 mm 5 m/S 690 mmHg 34%
    23:00 +14°C° 0,5 mm 5 m/S 690 mmHg 43%

    übermorgen, 22 Januar, Montag

    Zeit Temperatur Niederschläge Wind Luftdruck Luftfeuchtigkeit
    00:00 +12°C° 0,5 mm 4 m/S 690 mmHg 53%
    01:00 +11°C° 0,5 mm 3 m/S 690 mmHg 62%
    02:00 +11°C° 0,1 mm 3 m/S 690 mmHg 60%
    03:00 +10°C° 0,1 mm 3 m/S 691 mmHg 59%
    04:00 +10°C° 0,1 mm 3 m/S 691 mmHg 58%
    05:00 +9°C° 0 mm 3 m/S 691 mmHg 59%
    06:00 +8°C° 0 mm 3 m/S 692 mmHg 60%
    07:00 +8°C° 0 mm 3 m/S 692 mmHg 60%
    08:00 +8°C° 0 mm 3 m/S 693 mmHg 56%
    09:00 +9°C° 0 mm 3 m/S 693 mmHg 52%
    10:00 +10°C° 0 mm 3 m/S 694 mmHg 48%
    11:00 +11°C° 0 mm 3 m/S 694 mmHg 45%
    12:00 +12°C° 0 mm 3 m/S 694 mmHg 41%
    13:00 +13°C° 0 mm 3 m/S 693 mmHg 38%
    14:00 +14°C° 0 mm 2 m/S 693 mmHg 37%
    15:00 +15°C° 0 mm 2 m/S 693 mmHg 36%
    16:00 +15°C° 0 mm 2 m/S 693 mmHg 36%
    17:00 +14°C° 0 mm 2 m/S 693 mmHg 39%
    18:00 +13°C° 0 mm 1 m/S 693 mmHg 42%
    19:00 +12°C° 0 mm 1 m/S 694 mmHg 44%
    20:00 +12°C° 0 mm 1 m/S 694 mmHg 46%
    21:00 +12°C° 0 mm 1 m/S 694 mmHg 47%
    22:00 +11°C° 0 mm 1 m/S 694 mmHg 49%
    23:00 +11°C° 0 mm 1 m/S 694 mmHg 50%

    23 Januar, Dienstag

    Zeit Temperatur Niederschläge Wind Luftdruck Luftfeuchtigkeit
    00:00 +10°C° 0 mm 1 m/S 694 mmHg 52%
    01:00 +10°C° 0 mm 1 m/S 693 mmHg 54%
    02:00 +9°C° 0 mm 1 m/S 693 mmHg 56%
    03:00 +9°C° 0 mm 1 m/S 693 mmHg 57%
    04:00 +8°C° 0 mm 1 m/S 693 mmHg 59%
    05:00 +8°C° 0 mm 1 m/S 693 mmHg 60%
    06:00 +7°C° 0 mm 0 m/S 693 mmHg 61%
    07:00 +7°C° 0 mm 0 m/S 694 mmHg 62%
    08:00 +9°C° 0 mm 1 m/S 694 mmHg 55%
    09:00 +11°C° 0 mm 1 m/S 695 mmHg 48%
    10:00 +13°C° 0 mm 1 m/S 696 mmHg 42%
    11:00 +14°C° 0 mm 1 m/S 695 mmHg 39%
    12:00 +15°C° 0 mm 1 m/S 695 mmHg 36%
    13:00 +16°C° 0 mm 1 m/S 694 mmHg 33%
    14:00 +16°C° 0 mm 1 m/S 694 mmHg 32%
    15:00 +18°C° 0 mm 1 m/S 694 mmHg 31%
    16:00 +18°C° 0 mm 1 m/S 694 mmHg 30%
    17:00 +16°C° 0 mm 1 m/S 694 mmHg 33%
    18:00 +15°C° 0 mm 1 m/S 694 mmHg 36%
    19:00 +13°C° 0 mm 1 m/S 694 mmHg 39%
    20:00 +13°C° 0 mm 1 m/S 693 mmHg 40%
    21:00 +12°C° 0 mm 1 m/S 693 mmHg 41%
    22:00 +12°C° 0 mm 1 m/S 693 mmHg 43%
    23:00 +12°C° 0 mm 1 m/S 693 mmHg 43%

    24 Januar, Mittwoch

    Zeit Temperatur Niederschläge Wind Luftdruck Luftfeuchtigkeit
    00:00 +11°C° 0 mm 1 m/S 693 mmHg 44%
    01:00 +10°C° 0 mm 2 m/S 693 mmHg 45%
    02:00 +10°C° 0 mm 2 m/S 692 mmHg 44%
    03:00 +10°C° 0 mm 2 m/S 692 mmHg 44%
    04:00 +10°C° 0 mm 3 m/S 692 mmHg 44%
    05:00 +10°C° 0 mm 3 m/S 692 mmHg 44%
    06:00 +9°C° 0 mm 3 m/S 692 mmHg 44%
    07:00 +9°C° 0 mm 3 m/S 693 mmHg 44%
    08:00 +11°C° 0 mm 3 m/S 693 mmHg 39%
    09:00 +13°C° 0 mm 3 m/S 694 mmHg 33%
    10:00 +16°C° 0 mm 3 m/S 694 mmHg 28%
    11:00 +17°C° 0 mm 3 m/S 694 mmHg 25%
    12:00 +18°C° 0 mm 2 m/S 693 mmHg 22%
    13:00 +20°C° 0 mm 1 m/S 693 mmHg 19%
    14:00 +20°C° 0 mm 1 m/S 693 mmHg 18%
    15:00 +21°C° 0 mm 1 m/S 693 mmHg 17%
    16:00 +21°C° 0 mm 1 m/S 693 mmHg 16%
    17:00 +19°C° 0 mm 1 m/S 693 mmHg 19%
    18:00 +18°C° 0 mm 1 m/S 693 mmHg 22%
    19:00 +15°C° 0 mm 1 m/S 693 mmHg 24%
    20:00 +14°C° 0 mm 1 m/S 693 mmHg 25%
    21:00 +14°C° 0 mm 1 m/S 693 mmHg 26%
    22:00 +13°C° 0 mm 1 m/S 693 mmHg 27%
    23:00 +13°C° 0 mm 1 m/S 692 mmHg 28%

    25 Januar, Donnerstag

    Zeit Temperatur Niederschläge Wind Luftdruck Luftfeuchtigkeit
    00:00 +12°C° 0 mm 1 m/S 692 mmHg 28%
    01:00 +12°C° 0 mm 1 m/S 692 mmHg 29%
    02:00 +11°C° 0 mm 1 m/S 692 mmHg 30%
    03:00 +9°C° 0 mm 0 m/S 692 mmHg 31%
    04:00 +9°C° 0 mm 0 m/S 691 mmHg 32%
    05:00 +9°C° 0 mm 0 m/S 692 mmHg 32%
    06:00 +8°C° 0 mm 0 m/S 692 mmHg 33%
    07:00 +8°C° 0 mm 0 m/S 692 mmHg 33%
    08:00 +11°C° 0 mm 0 m/S 693 mmHg 29%
    09:00 +13°C° 0 mm 0 m/S 694 mmHg 24%
    10:00 +18°C° 0 mm 1 m/S 695 mmHg 19%
    11:00 +19°C° 0 mm 1 m/S 695 mmHg 18%
    12:00 +19°C° 0 mm 2 m/S 694 mmHg 16%
    13:00 +20°C° 0 mm 2 m/S 694 mmHg 15%
    14:00 +20°C° 0 mm 3 m/S 694 mmHg 15%
    15:00 +20°C° 0 mm 3 m/S 694 mmHg 14%
    16:00 +21°C° 0 mm 3 m/S 693 mmHg 14%
    17:00 +19°C° 0 mm 3 m/S 693 mmHg 16%
    18:00 +17°C° 0 mm 3 m/S 693 mmHg 18%
    19:00 +16°C° 0 mm 3 m/S 693 mmHg 21%
    20:00 +14°C° 0 mm 3 m/S 693 mmHg 22%
    21:00 +14°C° 0 mm 2 m/S 693 mmHg 23%
    22:00 +14°C° 0 mm 2 m/S 693 mmHg 24%
    23:00 +13°C° 0 mm 2 m/S 693 mmHg 25%
    Mehr zeigen